| time (UTC) | temp F | wind direction | speed MPH | gust MPH | rain 1hr in | rain 24hr in | rain mn in | humidity % | barometer mb |
| 20260507201536 | 59 | 0 | 1.0 | 9.0 | 0.00 | 0.00 | 0.00 | 42 | 1009.6 |
| 20260507201018 | 59 | 151 | 3.0 | 9.0 | 0.00 | 0.00 | 0.00 | 42 | 1009.7 |
| 20260507200517 | 59 | 43 | 3.0 | 9.0 | 0.00 | 0.00 | 0.00 | 44 | 1009.7 |
| 20260507200035 | 60 | 338 | 2.0 | 9.0 | 0.00 | 0.00 | 0.00 | 42 | 1009.7 |
| 20260507195516 | 60 | 302 | 3.0 | 9.0 | 0.00 | 0.00 | 0.00 | 40 | 1009.7 |
| 20260507195017 | 61 | 150 | 2.0 | 9.0 | 0.00 | 0.00 | 0.00 | 43 | 1009.8 |
| 20260507194538 | 60 | 266 | 2.0 | 9.0 | 0.00 | 0.00 | 0.00 | 45 | 1009.9 |
| 20260507194018 | 59 | 302 | 2.0 | 6.0 | 0.00 | 0.00 | 0.00 | 46 | 1010.0 |
| 20260507193516 | 59 | 308 | 2.0 | 6.0 | 0.00 | 0.00 | 0.00 | 42 | 1010.0 |
| 20260507193035 | 59 | 296 | 3.0 | 12.0 | 0.00 | 0.00 | 0.00 | 45 | 1010.0 |
| 20260507192517 | 59 | 360 | 4.0 | 12.0 | 0.00 | 0.00 | 0.00 | 42 | 1010.0 |
| 20260507192017 | 60 | 320 | 2.0 | 11.0 | 0.00 | 0.00 | 0.00 | 42 | 1010.0 |
| 20260507191539 | 60 | 245 | 3.0 | 14.0 | 0.00 | 0.00 | 0.00 | 43 | 1010.0 |
| 20260507191016 | 61 | 282 | 3.0 | 14.0 | 0.00 | 0.00 | 0.00 | 44 | 1010.0 |
| 20260507190518 | 61 | 217 | 4.0 | 12.0 | 0.00 | 0.00 | 0.00 | 41 | 1010.0 |
| 20260507190038 | 61 | 219 | 2.0 | 12.0 | 0.00 | 0.00 | 0.00 | 43 | 1010.1 |
| 20260507185517 | 61 | 234 | 3.0 | 10.0 | 0.00 | 0.00 | 0.00 | 46 | 1010.1 |
| 20260507185017 | 61 | 316 | 4.0 | 10.0 | 0.00 | 0.00 | 0.00 | 46 | 1010.2 |
| 20260507184533 | 60 | 288 | 3.0 | 7.0 | 0.00 | 0.00 | 0.00 | 44 | 1010.2 |
| 20260507184018 | 59 | 323 | 2.0 | 10.0 | 0.00 | 0.00 | 0.00 | 49 | 1010.3 |
| 20260507183517 | 58 | 314 | 2.0 | 10.0 | 0.00 | 0.00 | 0.00 | 48 | 1010.4 |
| 20260507183034 | 58 | 301 | 3.0 | 10.0 | 0.00 | 0.00 | 0.00 | 47 | 1010.5 |
| 20260507182516 | 58 | 313 | 4.0 | 10.0 | 0.00 | 0.00 | 0.00 | 47 | 1010.5 |
| 20260507182017 | 59 | 55 | 4.0 | 7.0 | 0.00 | 0.00 | 0.00 | 44 | 1010.4 |
| 20260507181544 | 60 | 224 | 2.0 | 6.0 | 0.00 | 0.00 | 0.00 | 42 | 1010.4 |
| 20260507181018 | 59 | 217 | 1.0 | 7.0 | 0.00 | 0.00 | 0.00 | 45 | 1010.5 |
| 20260507180517 | 59 | 308 | 2.0 | 10.0 | 0.00 | 0.00 | 0.00 | 44 | 1010.6 |
| 20260507180040 | 60 | 128 | 3.0 | 10.0 | 0.00 | 0.00 | 0.00 | 40 | 1010.8 |
| 20260507175520 | 59 | 336 | 3.0 | 10.0 | 0.00 | 0.00 | 0.00 | 46 | 1010.6 |
| 20260507175018 | 59 | 133 | 1.0 | 7.0 | 0.00 | 0.00 | 0.00 | 45 | 1010.7 |
| 20260507174536 | 59 | 261 | 3.0 | 7.0 | 0.00 | 0.00 | 0.00 | 41 | 1010.8 |
| 20260507174016 | 60 | 0 | 1.0 | 9.0 | 0.00 | 0.00 | 0.00 | 44 | 1010.9 |
| 20260507173517 | 59 | 138 | 3.0 | 9.0 | 0.00 | 0.00 | 0.00 | 44 | 1010.9 |
| 20260507173036 | 59 | 303 | 3.0 | 10.0 | 0.00 | 0.00 | 0.00 | 44 | 1011.0 |
| 20260507172517 | 59 | 248 | 3.0 | 10.0 | 0.00 | 0.00 | 0.00 | 43 | 1011.1 |
| 20260507172017 | 59 | 294 | 4.0 | 10.0 | 0.00 | 0.00 | 0.00 | 43 | 1011.2 |
| 20260507171533 | 60 | 258 | 3.0 | 11.0 | 0.00 | 0.00 | 0.00 | 44 | 1011.1 |
| 20260507171017 | 59 | 310 | 2.0 | 11.0 | 0.00 | 0.00 | 0.00 | 47 | 1011.3 |
| 20260507170517 | 59 | 334 | 2.0 | 9.0 | 0.00 | 0.00 | 0.00 | 45 | 1011.3 |
| 20260507170042 | 58 | 148 | 3.0 | 9.0 | 0.00 | 0.00 | 0.00 | 49 | 1011.4 |
| 20260507165517 | 57 | 233 | 1.0 | 6.0 | 0.00 | 0.00 | 0.00 | 45 | 1011.4 |
| 20260507165018 | 57 | 326 | 1.0 | 6.0 | 0.00 | 0.00 | 0.00 | 48 | 1011.5 |
| 20260507164534 | 57 | 277 | 1.0 | 6.0 | 0.00 | 0.00 | 0.00 | 48 | 1011.5 |
| 20260507164018 | 57 | 329 | 2.0 | 6.0 | 0.00 | 0.00 | 0.00 | 44 | 1011.5 |
| 20260507163517 | 57 | 225 | 1.0 | 5.0 | 0.00 | 0.00 | 0.00 | 51 | 1011.6 |
| 20260507163038 | 57 | 298 | 1.0 | 7.0 | 0.00 | 0.00 | 0.00 | 46 | 1011.7 |
| 20260507162519 | 56 | 52 | 2.0 | 7.0 | 0.00 | 0.00 | 0.00 | 54 | 1011.8 |
| 20260507162021 | 56 | 281 | 2.0 | 5.0 | 0.00 | 0.00 | 0.00 | 49 | 1011.8 |
| 20260507161535 | 56 | 214 | 1.0 | 5.0 | 0.00 | 0.00 | 0.00 | 47 | 1011.8 |
| 20260507161017 | 56 | 274 | 2.0 | 6.0 | 0.00 | 0.00 | 0.00 | 47 | 1011.9 |
| 20260507160519 | 56 | 259 | 1.0 | 6.0 | 0.00 | 0.00 | 0.00 | 50 | 1011.9 |
| 20260507160038 | 56 | 320 | 2.0 | 6.0 | 0.00 | 0.00 | 0.00 | 51 | 1012.0 |
| 20260507155517 | 55 | 356 | 3.0 | 6.0 | 0.00 | 0.00 | 0.00 | 50 | 1011.9 |
| 20260507155016 | 56 | 290 | 1.0 | 7.0 | 0.00 | 0.00 | 0.00 | 47 | 1011.9 |
| 20260507154534 | 55 | 325 | 3.0 | 7.0 | 0.00 | 0.00 | 0.00 | 48 | 1012.0 |
| 20260507154018 | 55 | 338 | 1.0 | 6.0 | 0.00 | 0.00 | 0.00 | 51 | 1012.1 |
| 20260507153518 | 56 | 331 | 3.0 | 9.0 | 0.00 | 0.00 | 0.00 | 48 | 1012.1 |
| 20260507153036 | 56 | 305 | 1.0 | 9.0 | 0.00 | 0.00 | 0.00 | 52 | 1012.0 |
| 20260507152519 | 57 | 328 | 4.0 | 8.0 | 0.00 | 0.00 | 0.00 | 48 | 1012.1 |
| 20260507152018 | 57 | 152 | 3.0 | 7.0 | 0.00 | 0.00 | 0.00 | 49 | 1012.1 |
| 20260507151541 | 56 | 334 | 1.0 | 6.0 | 0.00 | 0.00 | 0.00 | 56 | 1012.2 |
| 20260507151018 | 57 | 318 | 2.0 | 8.0 | 0.00 | 0.00 | 0.00 | 49 | 1012.3 |
| 20260507150518 | 56 | 171 | 2.0 | 8.0 | 0.00 | 0.00 | 0.00 | 49 | 1012.4 |
| 20260507150036 | 56 | 63 | 2.0 | 6.0 | 0.00 | 0.00 | 0.00 | 51 | 1012.5 |
| 20260507145518 | 56 | 329 | 3.0 | 6.0 | 0.00 | 0.03 | 0.00 | 51 | 1012.7 |
| 20260507145017 | 56 | 205 | 2.0 | 6.0 | 0.00 | 0.03 | 0.00 | 55 | 1012.6 |
| 20260507144536 | 55 | 262 | 3.0 | 6.0 | 0.00 | 0.03 | 0.00 | 50 | 1012.7 |
| 20260507144018 | 55 | 114 | 1.0 | 6.0 | 0.00 | 0.03 | 0.00 | 57 | 1012.8 |
| 20260507143518 | 54 | 269 | 4.0 | 6.0 | 0.00 | 0.03 | 0.00 | 53 | 1012.9 |
| 20260507143036 | 55 | 312 | 1.0 | 5.0 | 0.00 | 0.03 | 0.00 | 51 | 1013.0 |
| 20260507142516 | 54 | 0 | 1.0 | 6.0 | 0.00 | 0.03 | 0.00 | 57 | 1013.0 |
| 20260507142017 | 54 | 42 | 3.0 | 6.0 | 0.00 | 0.03 | 0.00 | 54 | 1013.1 |
| 20260507141536 | 55 | 297 | 2.0 | 6.0 | 0.00 | 0.03 | 0.00 | 57 | 1013.1 |
| 20260507141018 | 54 | 268 | 1.0 | 5.0 | 0.00 | 0.03 | 0.00 | 56 | 1013.2 |
| 20260507140517 | 54 | 155 | 2.0 | 7.0 | 0.00 | 0.03 | 0.00 | 54 | 1013.3 |
| 20260507140053 | 54 | 243 | 2.0 | 7.0 | 0.00 | 0.03 | 0.00 | 54 | 1013.3 |
| 20260507135517 | 54 | 256 | 0.0 | 7.0 | 0.00 | 0.05 | 0.00 | 56 | 1013.5 |
| 20260507135017 | 53 | 110 | 2.0 | 7.0 | 0.00 | 0.05 | 0.00 | 57 | 1013.4 |
| 20260507134539 | 53 | 307 | 2.0 | 7.0 | 0.00 | 0.05 | 0.00 | 58 | 1013.4 |
| 20260507134023 | 52 | 213 | 2.0 | 7.0 | 0.00 | 0.05 | 0.00 | 58 | 1013.5 |
| 20260507133522 | 52 | 348 | 2.0 | 4.0 | 0.00 | 0.05 | 0.00 | 59 | 1013.5 |
| 20260507133034 | 52 | 290 | 2.0 | 4.0 | 0.00 | 0.05 | 0.00 | 59 | 1013.6 |
| 20260507132518 | 52 | 0 | 2.0 | 3.0 | 0.00 | 0.05 | 0.00 | 60 | 1013.6 |
| 20260507132020 | 53 | 253 | 0.0 | 4.0 | 0.00 | 0.05 | 0.00 | 65 | 1013.6 |
| 20260507131542 | 52 | 160 | 1.0 | 4.0 | 0.00 | 0.05 | 0.00 | 67 | 1013.6 |
| 20260507131018 | 51 | 101 | 1.0 | 4.0 | 0.00 | 0.05 | 0.00 | 64 | 1013.5 |
| 20260507130517 | 51 | 230 | 1.0 | 4.0 | 0.00 | 0.05 | 0.00 | 64 | 1013.5 |
| 20260507130034 | 51 | 287 | 1.0 | 4.0 | 0.00 | 0.05 | 0.00 | 62 | 1013.5 |
| 20260507125517 | 51 | 211 | 1.0 | 5.0 | 0.00 | 0.09 | 0.00 | 67 | 1013.5 |
| 20260507125019 | 50 | 0 | 1.0 | 5.0 | 0.00 | 0.09 | 0.00 | 67 | 1013.6 |
| 20260507124543 | 50 | 0 | 2.0 | 5.0 | 0.00 | 0.09 | 0.00 | 65 | 1013.6 |
| 20260507124021 | 50 | 320 | 1.0 | 2.0 | 0.00 | 0.09 | 0.00 | 70 | 1013.6 |
| 20260507123519 | 50 | 139 | 0.0 | 2.0 | 0.00 | 0.09 | 0.00 | 72 | 1013.6 |
| 20260507123039 | 49 | 221 | 0.0 | 4.0 | 0.00 | 0.09 | 0.00 | 74 | 1013.7 |
| 20260507122517 | 48 | 160 | 0.0 | 4.0 | 0.00 | 0.09 | 0.00 | 79 | 1013.7 |
| 20260507122018 | 47 | 117 | 1.0 | 4.0 | 0.00 | 0.09 | 0.00 | 79 | 1013.7 |
| 20260507121538 | 46 | 121 | 1.0 | 2.0 | 0.00 | 0.09 | 0.00 | 83 | 1013.8 |
| 20260507121018 | 45 | 162 | 0.0 | 2.0 | 0.00 | 0.09 | 0.00 | 86 | 1013.7 |
| 20260507120519 | 45 | 0 | 1.0 | 2.0 | 0.00 | 0.09 | 0.00 | 86 | 1013.7 |
| 20260507120035 | 44 | 85 | 1.0 | 2.0 | 0.00 | 0.09 | 0.00 | 86 | 1013.7 |
| 20260507115523 | 44 | 125 | 1.0 | 2.0 | 0.00 | 0.11 | 0.00 | 87 | 1013.6 |
| 20260507115021 | 44 | 103 | 1.0 | 2.0 | 0.00 | 0.11 | 0.00 | 88 | 1013.6 |
| 20260507114535 | 43 | 108 | 0.0 | 2.0 | 0.00 | 0.11 | 0.00 | 90 | 1013.6 |
| 20260507114019 | 43 | 126 | 1.0 | 2.0 | 0.00 | 0.11 | 0.00 | 90 | 1013.5 |
| 20260507113517 | 42 | 105 | 0.0 | 1.0 | 0.00 | 0.11 | 0.00 | 91 | 1013.5 |
| 20260507113039 | 43 | 124 | 0.0 | 1.0 | 0.00 | 0.11 | 0.00 | 91 | 1013.5 |
| 20260507112517 | 43 | 0 | 0.0 | 0.0 | 0.00 | 0.11 | 0.00 | 94 | 1013.4 |
| 20260507112017 | 42 | 0 | 0.0 | 0.0 | 0.00 | 0.11 | 0.00 | 94 | 1013.3 |
| 20260507111538 | 40 | 0 | 0.0 | 0.0 | 0.00 | 0.11 | 0.00 | 94 | 1013.2 |
| 20260507111017 | 40 | 0 | 0.0 | 0.0 | 0.00 | 0.11 | 0.00 | 94 | 1013.2 |
| 20260507110517 | 39 | 0 | 0.0 | 0.0 | 0.00 | 0.11 | 0.00 | 95 | 1013.3 |
| 20260507110039 | 38 | 0 | 0.0 | 0.0 | 0.00 | 0.11 | 0.00 | 94 | 1013.2 |
| 20260507105516 | 37 | 0 | 0.0 | 0.0 | 0.00 | 0.36 | 0.00 | 94 | 1013.1 |
| 20260507105018 | 36 | 0 | 0.0 | 0.0 | 0.00 | 0.36 | 0.00 | 94 | 1013.2 |
| 20260507104539 | 36 | 0 | 0.0 | 0.0 | 0.00 | 0.36 | 0.00 | 94 | 1013.0 |
| 20260507104017 | 35 | 0 | 0.0 | 0.0 | 0.00 | 0.36 | 0.00 | 94 | 1013.0 |
| 20260507103517 | 35 | 0 | 0.0 | 0.0 | 0.00 | 0.36 | 0.00 | 94 | 1013.0 |
| 20260507103035 | 35 | 0 | 0.0 | 0.0 | 0.00 | 0.36 | 0.00 | 93 | 1013.0 |
| 20260507102518 | 35 | 0 | 0.0 | 0.0 | 0.00 | 0.36 | 0.00 | 93 | 1012.9 |
| 20260507102018 | 35 | 0 | 0.0 | 0.0 | 0.00 | 0.36 | 0.00 | 93 | 1012.9 |
| 20260507101553 | 36 | 0 | 0.0 | 0.0 | 0.00 | 0.36 | 0.00 | 93 | 1012.8 |
| 20260507101016 | 36 | 0 | 0.0 | 0.0 | 0.00 | 0.36 | 0.00 | 93 | 1012.8 |
| 20260507100519 | 36 | 0 | 0.0 | 0.0 | 0.00 | 0.36 | 0.00 | 93 | 1012.9 |
| 20260507100037 | 36 | 0 | 0.0 | 0.0 | 0.00 | 0.36 | 0.00 | 93 | 1012.8 |
| 20260507095517 | 36 | 0 | 0.0 | 0.0 | 0.00 | 0.51 | 0.00 | 93 | 1012.8 |
| 20260507095019 | 36 | 0 | 0.0 | 0.0 | 0.00 | 0.51 | 0.00 | 93 | 1012.8 |
| 20260507094546 | 36 | 0 | 0.0 | 0.0 | 0.00 | 0.51 | 0.00 | 93 | 1012.8 |
| 20260507094018 | 36 | 0 | 0.0 | 0.0 | 0.00 | 0.51 | 0.00 | 93 | 1012.8 |
| 20260507093517 | 36 | 0 | 0.0 | 0.0 | 0.00 | 0.51 | 0.00 | 93 | 1012.7 |
| 20260507093038 | 36 | 0 | 0.0 | 0.0 | 0.00 | 0.51 | 0.00 | 92 | 1012.8 |
| 20260507092523 | 37 | 0 | 0.0 | 0.0 | 0.00 | 0.51 | 0.00 | 92 | 1012.8 |
| 20260507092017 | 37 | 0 | 0.0 | 0.0 | 0.00 | 0.51 | 0.00 | 92 | 1012.9 |
| 20260507091553 | 37 | 0 | 0.0 | 0.0 | 0.00 | 0.51 | 0.00 | 92 | 1012.9 |
| 20260507091018 | 38 | 0 | 0.0 | 0.0 | 0.00 | 0.51 | 0.00 | 92 | 1013.0 |
| 20260507090518 | 38 | 0 | 0.0 | 0.0 | 0.00 | 0.51 | 0.00 | 92 | 1012.9 |
| 20260507090040 | 38 | 0 | 0.0 | 0.0 | 0.00 | 0.51 | 0.00 | 92 | 1012.9 |
| 20260507085517 | 38 | 0 | 0.0 | 0.0 | 0.00 | 0.61 | 0.00 | 92 | 1013.0 |
| 20260507085018 | 38 | 0 | 0.0 | 0.0 | 0.00 | 0.61 | 0.00 | 92 | 1013.0 |
| 20260507084535 | 38 | 0 | 0.0 | 0.0 | 0.00 | 0.61 | 0.00 | 91 | 1012.9 |
| 20260507084019 | 38 | 0 | 0.0 | 0.0 | 0.00 | 0.61 | 0.00 | 91 | 1012.9 |
| 20260507083517 | 38 | 0 | 0.0 | 0.0 | 0.00 | 0.61 | 0.00 | 91 | 1013.0 |
| 20260507083033 | 38 | 0 | 0.0 | 0.0 | 0.00 | 0.61 | 0.00 | 90 | 1013.0 |
| 20260507082515 | 39 | 0 | 0.0 | 0.0 | 0.00 | 0.61 | 0.00 | 91 | 1013.0 |
| 20260507082019 | 39 | 0 | 0.0 | 0.0 | 0.00 | 0.61 | 0.00 | 91 | 1013.0 |
| 20260507081550 | 40 | 0 | 0.0 | 0.0 | 0.00 | 0.61 | 0.00 | 90 | 1012.9 |
| 20260507081017 | 40 | 0 | 0.0 | 1.0 | 0.00 | 0.61 | 0.00 | 90 | 1012.8 |
| 20260507080518 | 40 | 0 | 0.0 | 1.0 | 0.00 | 0.61 | 0.00 | 90 | 1012.7 |
| 20260507080043 | 40 | 0 | 0.0 | 1.0 | 0.00 | 0.61 | 0.00 | 89 | 1012.8 |
| 20260507075519 | 41 | 0 | 0.0 | 0.0 | 0.00 | 0.63 | 0.00 | 89 | 1012.9 |
| 20260507075017 | 41 | 0 | 0.0 | 0.0 | 0.00 | 0.63 | 0.00 | 88 | 1012.9 |
| 20260507074540 | 41 | 0 | 0.0 | 0.0 | 0.00 | 0.63 | 0.00 | 88 | 1013.0 |
| 20260507074019 | 42 | 0 | 0.0 | 0.0 | 0.00 | 0.63 | 0.00 | 87 | 1012.9 |
| 20260507073519 | 42 | 0 | 0.0 | 0.0 | 0.00 | 0.63 | 0.00 | 86 | 1012.9 |
| 20260507073054 | 42 | 0 | 0.0 | 0.0 | 0.00 | 0.63 | 0.00 | 86 | 1012.9 |
| 20260507072519 | 43 | 0 | 0.0 | 0.0 | 0.00 | 0.63 | 0.00 | 86 | 1012.9 |
| 20260507072022 | 43 | 0 | 0.0 | 0.0 | 0.00 | 0.63 | 0.00 | 85 | 1012.9 |
| 20260507071539 | 44 | 0 | 0.0 | 0.0 | 0.00 | 0.63 | 0.00 | 84 | 1012.9 |
| 20260507071018 | 44 | 0 | 0.0 | 0.0 | 0.00 | 0.63 | 0.00 | 83 | 1012.8 |
| 20260507070519 | 44 | 0 | 0.0 | 0.0 | 0.00 | 0.63 | 0.00 | 81 | 1012.8 |
| 20260507070058 | 44 | 0 | 0.0 | 0.0 | 0.00 | 0.63 | 0.00 | 80 | 1012.9 |
| 20260507065517 | 45 | 0 | 0.0 | 0.0 | 0.00 | 0.70 | 0.00 | 79 | 1013.0 |
| 20260507065018 | 45 | 0 | 0.0 | 0.0 | 0.00 | 0.70 | 0.00 | 78 | 1013.0 |
| 20260507064541 | 45 | 0 | 0.0 | 0.0 | 0.00 | 0.70 | 0.00 | 79 | 1012.9 |
| 20260507064018 | 45 | 0 | 0.0 | 0.0 | 0.00 | 0.70 | 0.00 | 79 | 1012.9 |
| 20260507063518 | 45 | 0 | 0.0 | 0.0 | 0.00 | 0.70 | 0.00 | 75 | 1012.9 |
| 20260507063033 | 46 | 0 | 0.0 | 0.0 | 0.00 | 0.70 | 0.00 | 74 | 1012.8 |
| 20260507062519 | 46 | 0 | 0.0 | 2.0 | 0.00 | 0.70 | 0.00 | 75 | 1012.9 |
| 20260507062017 | 46 | 0 | 0.0 | 2.0 | 0.00 | 0.70 | 0.00 | 77 | 1013.0 |
| 20260507061535 | 46 | 330 | 0.0 | 1.0 | 0.00 | 0.70 | 0.00 | 76 | 1013.0 |
| 20260507061017 | 46 | 0 | 0.0 | 1.0 | 0.00 | 0.70 | 0.00 | 77 | 1013.1 |
| 20260507060519 | 46 | 0 | 0.0 | 1.0 | 0.00 | 0.70 | 0.00 | 78 | 1013.2 |
| 20260507060034 | 45 | 0 | 0.0 | 0.0 | 0.00 | 0.70 | 0.00 | 82 | 1013.2 |
| 20260507055517 | 46 | 0 | 0.0 | 0.0 | 0.00 | 0.74 | 0.00 | 83 | 1013.2 |
| 20260507055021 | 46 | 0 | 0.0 | 0.0 | 0.00 | 0.74 | 0.00 | 84 | 1013.3 |
| 20260507054543 | 46 | 0 | 0.0 | 0.0 | 0.00 | 0.74 | 0.00 | 84 | 1013.5 |
| 20260507054020 | 46 | 0 | 0.0 | 0.0 | 0.00 | 0.74 | 0.00 | 85 | 1013.6 |
| 20260507053518 | 46 | 0 | 0.0 | 0.0 | 0.00 | 0.74 | 0.00 | 84 | 1013.6 |
| 20260507053037 | 46 | 0 | 0.0 | 0.0 | 0.00 | 0.74 | 0.00 | 83 | 1013.7 |
| 20260507052518 | 46 | 0 | 0.0 | 0.0 | 0.00 | 0.74 | 0.00 | 82 | 1013.6 |
| 20260507052017 | 46 | 0 | 0.0 | 0.0 | 0.00 | 0.74 | 0.00 | 79 | 1013.6 |
| 20260507051538 | 46 | 0 | 0.0 | 1.0 | 0.00 | 0.74 | 0.00 | 77 | 1013.6 |
| 20260507051016 | 46 | 0 | 0.0 | 1.0 | 0.00 | 0.74 | 0.00 | 77 | 1013.6 |
| 20260507050518 | 46 | 0 | 0.0 | 1.0 | 0.00 | 0.74 | 0.00 | 79 | 1013.5 |
| 20260507050035 | 47 | 0 | 0.0 | 1.0 | 0.00 | 0.74 | 0.00 | 78 | 1013.5 |
| 20260507045516 | 47 | 0 | 0.0 | 0.0 | 0.00 | 0.75 | 0.00 | 76 | 1013.6 |
| 20260507045021 | 47 | 0 | 0.0 | 1.0 | 0.00 | 0.75 | 0.00 | 74 | 1013.6 |
| 20260507044544 | 47 | 0 | 0.0 | 1.0 | 0.00 | 0.75 | 0.00 | 75 | 1013.6 |
| 20260507044020 | 47 | 0 | 0.0 | 1.0 | 0.00 | 0.75 | 0.00 | 75 | 1013.6 |
| 20260507043518 | 47 | 0 | 0.0 | 0.0 | 0.00 | 0.75 | 0.00 | 77 | 1013.6 |
| 20260507043038 | 47 | 0 | 0.0 | 0.0 | 0.00 | 0.75 | 0.00 | 78 | 1013.6 |
| 20260507042520 | 47 | 0 | 0.0 | 1.0 | 0.00 | 0.75 | 0.00 | 76 | 1013.6 |
| 20260507042019 | 47 | 0 | 0.0 | 1.0 | 0.00 | 0.75 | 0.00 | 76 | 1013.6 |
| 20260507041539 | 47 | 301 | 0.0 | 1.0 | 0.00 | 0.75 | 0.00 | 76 | 1013.7 |
| 20260507041018 | 48 | 0 | 0.0 | 0.0 | 0.00 | 0.75 | 0.00 | 76 | 1013.6 |
| 20260507040516 | 48 | 0 | 0.0 | 0.0 | 0.00 | 0.75 | 0.00 | 73 | 1013.6 |
| 20260507040038 | 48 | 0 | 0.0 | 0.0 | 0.00 | 0.75 | 0.00 | 73 | 1013.5 |
| 20260507035518 | 48 | 0 | 0.0 | 0.0 | 0.00 | 0.75 | 0.75 | 73 | 1013.5 |
| 20260507035017 | 48 | 0 | 0.0 | 1.0 | 0.00 | 0.75 | 0.75 | 71 | 1013.5 |
| 20260507034533 | 48 | 0 | 0.0 | 1.0 | 0.00 | 0.75 | 0.75 | 70 | 1013.4 |
| 20260507034019 | 48 | 342 | 0.0 | 1.0 | 0.00 | 0.75 | 0.75 | 72 | 1013.7 |
| 20260507033519 | 48 | 0 | 0.0 | 1.0 | 0.00 | 0.75 | 0.75 | 72 | 1013.7 |
| 20260507033033 | 48 | 0 | 0.0 | 1.0 | 0.00 | 0.75 | 0.75 | 70 | 1013.5 |
| 20260507032521 | 49 | 342 | 0.0 | 3.0 | 0.00 | 0.75 | 0.75 | 70 | 1013.3 |
| 20260507032016 | 49 | 321 | 0.0 | 3.0 | 0.00 | 0.75 | 0.75 | 69 | 1013.3 |
| 20260507031533 | 49 | 341 | 1.0 | 2.0 | 0.00 | 0.75 | 0.75 | 68 | 1013.2 |
| 20260507031017 | 49 | 342 | 0.0 | 2.0 | 0.00 | 0.75 | 0.75 | 69 | 1013.0 |
| 20260507030519 | 49 | 0 | 0.0 | 2.0 | 0.00 | 0.75 | 0.75 | 69 | 1013.1 |
| 20260507030042 | 49 | 0 | 0.0 | 3.0 | 0.00 | 0.75 | 0.75 | 68 | 1013.2 |
| 20260507025518 | 49 | 0 | 1.0 | 3.0 | 0.00 | 0.75 | 0.75 | 68 | 1013.0 |
| 20260507025017 | 49 | 6 | 0.0 | 2.0 | 0.00 | 0.75 | 0.75 | 68 | 1013.0 |
| 20260507024539 | 49 | 0 | 0.0 | 2.0 | 0.00 | 0.75 | 0.75 | 69 | 1013.0 |
| 20260507024016 | 49 | 319 | 0.0 | 2.0 | 0.00 | 0.75 | 0.75 | 69 | 1012.8 |
| 20260507023518 | 49 | 351 | 0.0 | 2.0 | 0.00 | 0.75 | 0.75 | 69 | 1013.0 |
| 20260507023035 | 49 | 343 | 0.0 | 1.0 | 0.00 | 0.75 | 0.75 | 69 | 1013.0 |
| 20260507022519 | 49 | 0 | 0.0 | 1.0 | 0.00 | 0.75 | 0.75 | 69 | 1012.8 |
| 20260507022018 | 50 | 323 | 0.0 | 2.0 | 0.00 | 0.75 | 0.75 | 68 | 1012.9 |
| 20260507021534 | 50 | 340 | 0.0 | 3.0 | 0.00 | 0.75 | 0.75 | 67 | 1012.7 |
| 20260507021017 | 50 | 20 | 1.0 | 3.0 | 0.00 | 0.75 | 0.75 | 67 | 1012.7 |
| 20260507020517 | 50 | 0 | 1.0 | 3.0 | 0.00 | 0.75 | 0.75 | 68 | 1012.7 |
| 20260507020037 | 50 | 0 | 0.0 | 3.0 | 0.00 | 0.75 | 0.75 | 69 | 1012.7 |
| 20260507015518 | 50 | 347 | 1.0 | 3.0 | 0.00 | 0.75 | 0.75 | 69 | 1012.5 |
| 20260507015019 | 50 | 317 | 0.0 | 3.0 | 0.00 | 0.75 | 0.75 | 70 | 1012.4 |
| 20260507014557 | 50 | 326 | 1.0 | 4.0 | 0.00 | 0.75 | 0.75 | 69 | 1012.4 |
| 20260507014017 | 50 | 342 | 2.0 | 4.0 | 0.00 | 0.75 | 0.75 | 69 | 1012.2 |
| 20260507013518 | 50 | 326 | 2.0 | 4.0 | 0.00 | 0.75 | 0.75 | 69 | 1012.1 |
| 20260507013039 | 50 | 0 | 1.0 | 4.0 | 0.00 | 0.75 | 0.75 | 70 | 1012.1 |
| 20260507012521 | 50 | 305 | 1.0 | 3.0 | 0.00 | 0.75 | 0.75 | 71 | 1012.1 |
| 20260507012021 | 51 | 316 | 0.0 | 2.0 | 0.00 | 0.75 | 0.75 | 71 | 1012.1 |
| 20260507011539 | 51 | 0 | 0.0 | 4.0 | 0.00 | 0.75 | 0.75 | 70 | 1012.0 |
| 20260507011020 | 51 | 313 | 1.0 | 4.0 | 0.00 | 0.75 | 0.75 | 70 | 1012.1 |
| 20260507010523 | 51 | 56 | 1.0 | 6.0 | 0.00 | 0.75 | 0.75 | 72 | 1012.4 |
| 20260507010038 | 51 | 0 | 2.0 | 7.0 | 0.00 | 0.75 | 0.75 | 72 | 1012.6 |
| 20260507005524 | 51 | 314 | 3.0 | 7.0 | 0.00 | 0.75 | 0.75 | 72 | 1012.4 |
| 20260507005020 | 51 | 353 | 3.0 | 7.0 | 0.00 | 0.75 | 0.75 | 75 | 1012.5 |
| 20260507004535 | 51 | 308 | 1.0 | 4.0 | 0.00 | 0.75 | 0.75 | 79 | 1012.6 |
| 20260507004017 | 51 | 332 | 2.0 | 4.0 | 0.00 | 0.75 | 0.75 | 80 | 1012.5 |
| 20260507003516 | 51 | 0 | 0.0 | 0.0 | 0.00 | 0.75 | 0.75 | 82 | 1012.4 |
| 20260507003034 | 51 | 0 | 0.0 | 1.0 | 0.00 | 0.75 | 0.75 | 81 | 1012.5 |
| 20260507002516 | 52 | 0 | 0.0 | 1.0 | 0.00 | 0.75 | 0.75 | 82 | 1012.7 |
| 20260507002017 | 52 | 0 | 0.0 | 1.0 | 0.00 | 0.75 | 0.75 | 82 | 1012.7 |
| 20260507001539 | 52 | 326 | 0.0 | 2.0 | 0.00 | 0.75 | 0.75 | 81 | 1012.8 |
| 20260507001020 | 52 | 326 | 0.0 | 2.0 | 0.00 | 0.75 | 0.75 | 81 | 1012.6 |
| 20260507000518 | 52 | 0 | 0.0 | 2.0 | 0.00 | 0.75 | 0.75 | 81 | 1012.3 |
| 20260507000042 | 52 | 0 | 0.0 | 0.0 | 0.00 | 0.75 | 0.75 | 82 | 1012.0 |
| 20260506235518 | 52 | 0 | 0.0 | 0.0 | 0.00 | 0.75 | 0.75 | 80 | 1012.1 |
| 20260506235020 | 52 | 0 | 0.0 | 0.0 | 0.00 | 0.75 | 0.75 | 80 | 1012.1 |
| 20260506234535 | 52 | 0 | 0.0 | 0.0 | 0.00 | 0.75 | 0.75 | 81 | 1012.1 |
| 20260506234018 | 52 | 0 | 0.0 | 0.0 | 0.00 | 0.75 | 0.75 | 81 | 1012.1 |
| 20260506233518 | 52 | 0 | 0.0 | 0.0 | 0.00 | 0.75 | 0.75 | 81 | 1012.0 |
| 20260506233034 | 53 | 0 | 0.0 | 0.0 | 0.00 | 0.75 | 0.75 | 81 | 1012.0 |
| 20260506232517 | 53 | 0 | 0.0 | 0.0 | 0.00 | 0.75 | 0.75 | 81 | 1011.8 |
| 20260506232017 | 53 | 0 | 0.0 | 0.0 | 0.00 | 0.75 | 0.75 | 82 | 1011.8 |
| 20260506231535 | 53 | 0 | 0.0 | 0.0 | 0.00 | 0.75 | 0.75 | 81 | 1011.8 |
| 20260506231021 | 53 | 0 | 0.0 | 0.0 | 0.00 | 0.75 | 0.75 | 80 | 1011.7 |
| 20260506230518 | 53 | 0 | 0.0 | 0.0 | 0.00 | 0.75 | 0.75 | 80 | 1011.6 |
| 20260506230040 | 53 | 0 | 0.0 | 0.0 | 0.00 | 0.75 | 0.75 | 79 | 1011.6 |
| 20260506225518 | 53 | 0 | 0.0 | 0.0 | 0.00 | 0.75 | 0.75 | 78 | 1011.5 |
| 20260506225018 | 53 | 0 | 0.0 | 0.0 | 0.00 | 0.75 | 0.75 | 78 | 1011.6 |
| 20260506224538 | 53 | 0 | 0.0 | 3.0 | 0.00 | 0.75 | 0.75 | 77 | 1011.5 |
| 20260506224017 | 53 | 0 | 0.0 | 3.0 | 0.00 | 0.75 | 0.75 | 76 | 1011.3 |
| 20260506223517 | 54 | 0 | 0.0 | 1.0 | 0.00 | 0.75 | 0.75 | 77 | 1011.4 |
| 20260506223038 | 54 | 0 | 0.0 | 2.0 | 0.00 | 0.75 | 0.75 | 77 | 1011.4 |
| 20260506222517 | 54 | 0 | 0.0 | 2.0 | 0.00 | 0.75 | 0.75 | 77 | 1011.4 |
| 20260506222018 | 54 | 0 | 0.0 | 2.0 | 0.00 | 0.75 | 0.75 | 77 | 1011.5 |
| 20260506221534 | 54 | 307 | 0.0 | 1.0 | 0.00 | 0.75 | 0.75 | 77 | 1011.4 |
| 20260506221018 | 54 | 0 | 0.0 | 1.0 | 0.00 | 0.75 | 0.75 | 77 | 1011.5 |
| 20260506220516 | 53 | 0 | 0.0 | 2.0 | 0.00 | 0.75 | 0.75 | 77 | 1011.4 |
| 20260506220038 | 53 | 0 | 0.0 | 2.0 | 0.00 | 0.75 | 0.75 | 77 | 1011.3 |
| 20260506215518 | 53 | 276 | 0.0 | 4.0 | 0.00 | 0.75 | 0.75 | 77 | 1011.1 |
| 20260506215018 | 53 | 307 | 1.0 | 4.0 | 0.00 | 0.75 | 0.75 | 77 | 1011.3 |
| 20260506214533 | 53 | 335 | 1.0 | 4.0 | 0.00 | 0.75 | 0.75 | 78 | 1011.1 |
| 20260506214020 | 53 | 335 | 2.0 | 4.0 | 0.00 | 0.75 | 0.75 | 77 | 1011.1 |
| 20260506213517 | 53 | 332 | 1.0 | 4.0 | 0.00 | 0.75 | 0.75 | 78 | 1011.1 |
| 20260506213039 | 53 | 330 | 1.0 | 4.0 | 0.00 | 0.75 | 0.75 | 77 | 1011.0 |
| 20260506212518 | 53 | 18 | 1.0 | 6.0 | 0.00 | 0.75 | 0.75 | 77 | 1010.9 |
| 20260506212019 | 53 | 330 | 2.0 | 6.0 | 0.00 | 0.75 | 0.75 | 77 | 1010.9 |
| 20260506211540 | 53 | 22 | 1.0 | 6.0 | 0.00 | 0.75 | 0.75 | 77 | 1010.9 |
| 20260506211018 | 53 | 314 | 2.0 | 7.0 | 0.00 | 0.75 | 0.75 | 76 | 1010.8 |
| 20260506210520 | 53 | 295 | 2.0 | 7.0 | 0.00 | 0.75 | 0.75 | 77 | 1010.7 |
| 20260506210038 | 53 | 321 | 3.0 | 7.0 | 0.00 | 0.75 | 0.75 | 76 | 1010.6 |
| 20260506205517 | 53 | 310 | 1.0 | 6.0 | 0.00 | 0.75 | 0.75 | 78 | 1010.6 |
| 20260506205018 | 53 | 313 | 3.0 | 5.0 | 0.00 | 0.75 | 0.75 | 79 | 1010.5 |
| 20260506204534 | 53 | 349 | 2.0 | 5.0 | 0.00 | 0.75 | 0.75 | 80 | 1010.6 |
| 20260506204017 | 53 | 316 | 2.0 | 6.0 | 0.00 | 0.75 | 0.75 | 81 | 1010.4 |
| 20260506203517 | 53 | 314 | 3.0 | 6.0 | 0.00 | 0.75 | 0.75 | 80 | 1010.4 |
| 20260506203033 | 53 | 358 | 2.0 | 8.0 | 0.00 | 0.75 | 0.75 | 80 | 1010.3 |
| 20260506202518 | 53 | 315 | 2.0 | 9.0 | 0.00 | 0.75 | 0.75 | 81 | 1010.3 |
| 20260506202018 | 53 | 351 | 3.0 | 13.0 | 0.00 | 0.75 | 0.75 | 80 | 1010.1 |